Flag for Germany Weather past 2 weeks in Velbert, North Rhine-Westphalia, Germany

Now
65 °F

Scattered clouds.


Feels Like: 65 °F
Forecast: 53 / 65 °F
Wind: 2 mph from West

Location: Essen

Current Time: Sep 30, 2014 at 6:33:05 PM

Latest Report: Sep 30, 2014 at 6:00 PM


Visibility: 8 mi

Pressure: 30.27 "Hg

Humidity: 73%

Dew point: 56 °F

Location of VelbertLocation

Historic Weather in Velbert — Graph

°F

Velbert temperature yesterday

Maximum temperature yesterday: 71 °F (at 1:00 PM)
Minimum temperature yesterday: 59 °F (at 11:00 PM)
Average temperature yesterday: 64 °F

Past Weeks' High & Low Weather Summary

 TemperatureHumidityPressure
High77 °F (Sep 17, 4:00 PM)100% (Sep 19, 12:00 AM)30.40 "Hg (Sep 19, 12:00 AM)
Low46 °F (Sep 23, 7:00 AM)49% (Sep 17, 6:00 PM)29.82 "Hg (Sep 19, 5:00 AM)
Average60 °F83%30.07 "Hg
* Reported Sep 15 6:00 PM — Sep 30 5:00 PM, Velbert, Weather by CustomWeather, © 2014

Note: Actual official high and low records may vary slightly from our data, if they occured in-between our weather recording intervals... More about our weather records

Advertising

Velbert weather history for previous 24 hours

 ConditionsComfort  
Time TempWeatherWind HumidityBarometerVisibility
5:00 PM
Sep 30
66 °FPassing clouds.3 mph73%30.27 "Hg7 mi
4:00 PM65 °FScattered clouds.2 mph75%30.27 "Hg6 mi
3:00 PM65 °FOvercast.2 mph77%30.28 "Hg7 mi
2:00 PM65 °FOvercast.3 mph76%30.28 "Hg7 mi
1:00 PM65 °FOvercast.5 mph76%30.27 "Hg7 mi
12:00 PM64 °FScattered clouds.3 mph81%30.26 "Hg6 mi
11:00 AM62 °FFog.3 mph92%30.27 "Hg3 mi
10:00 AM61 °FFog.3 mph94%30.25 "Hg3 mi
9:00 AM60 °FFog.3 mph97%30.25 "Hg4 mi
8:00 AM60 °FLow clouds.3 mph96%30.23 "Hg5 mi
7:00 AM60 °FLow clouds.2 mph96%30.22 "Hg4 mi
6:00 AM59 °FDrizzle. Low clouds.2 mph96%30.22 "Hg4 mi
5:00 AM58 °FFog.2 mph98%30.21 "Hg4 mi
4:00 AM59 °FPassing clouds.3 mph97%30.22 "Hg5 mi
3:00 AM59 °FOvercast.2 mph95%30.22 "Hg6 mi
2:00 AM59 °FOvercast.2 mph97%30.22 "Hg5 mi
1:00 AM59 °FFog.2 mph98%30.22 "Hg4 mi
12:00 AM59 °FFog.2 mph99%30.22 "Hg3 mi
11:00 PM
Sep 29
59 °FLow clouds.2 mph99%30.22 "Hg3 mi
10:00 PM60 °FLight freezing rain. Low clouds.2 mph99%30.22 "Hg2 mi
9:00 PM61 °FLight rain. Low clouds.1 mph98%30.22 "Hg2 mi
8:00 PM63 °FLight freezing rain. Low clouds.3 mph86%30.22 "Hg7 mi
7:00 PM64 °FOvercast.2 mph85%30.21 "Hg9 mi
6:00 PM66 °FLight rain. Overcast.3 mph78%30.21 "Hg9 mi
Weather by CustomWeather, © 2014

See weather overviewHow to use our weather pages